[[{"header":{"parameterUnit":"m.s-1","parameterCategory":1,"la1":30.2991,"la2":30.254,"lo1":-89.0895,"lo2":-89.0444,"dy":0.0017,"dx":0.0017,"nx":28,"ny":28,"refTime":"2025-04-03T03:00:00:Z","depth":0,"parameterNumber":2,"parameterNumberName":"U-component_of_WINDS"},"data":[0,0,0,0,0,0,0,0,0,0,0,0,0,0,0,0,0,0,0,0,0,0,0,0,0,0,0,0,0,0,0,0,0,0,0,0,0,0,0,0,0,0,0,0,0,0,0,0,0,0,0,0,0,0,0,0,0,0,-5.7531,-5.7532,0,-5.7677,-5.7679,-5.7681,-5.7694,-5.7692,-5.769,-5.7689,-5.7838,-5.7843,-5.7848,0,0,0,0,0,0,0,0,0,0,0,0,0,-5.7261,-5.7266,-5.7531,-5.7532,-5.7534,-5.7677,-5.7679,-5.7681,-5.7694,-5.7692,-5.769,-5.7688,-5.7836,-5.7842,-5.7849,0,0,0,0,0,0,0,0,0,0,0,0,0,-5.739,-5.7268,-5.753,-5.7558,-5.7562,-5.7677,-5.7679,-5.7682,-5.7694,-5.7692,-5.7689,-5.7687,-5.7834,-5.7841,-5.7849,-5.7946,0,0,-5.7874,-5.7878,0,0,0,0,0,0,0,0,-5.7383,-5.74,-5.7552,-5.7556,-5.7561,-5.7665,-5.7639,-5.777,-5.7695,-5.7644,-5.7689,-5.7686,-5.7782,-5.7794,-5.7827,-5.7953,-5.796,-5.7875,-5.788,-5.7883,-5.7886,0,0,0,0,0,0,0,-5.7374,-5.7394,-5.7589,-5.7554,-5.756,-5.7563,-5.7579,-5.7664,-5.7724,-5.7648,-5.7649,-5.7667,-5.7784,-5.7819,-5.783,-5.7962,-5.7875,-5.7882,-5.7887,-5.789,-5.8176,-5.8178,0,0,0,0,0,0,-5.736,-5.7386,-5.7584,-5.7593,-5.7464,-5.757,-5.7587,-5.7634,-5.7723,-5.7735,-5.7669,-5.7667,-5.7806,-5.7821,-5.7835,-5.7954,-5.7883,-5.7891,-5.7896,-5.8173,-5.8176,-5.8179,0,0,0,0,0,0,-5.7354,-5.7377,-5.7578,-5.749,-5.7516,-5.7577,-5.7629,-5.7638,-5.7673,-5.7739,-5.7749,-5.7693,-5.7805,-5.7824,-5.7919,-5.7959,-5.7895,-5.7902,-5.817,-5.8174,-5.8178,-5.8192,0,0,0,0,0,0,-5.7346,-5.7375,-5.7412,-5.7491,-5.752,-5.7659,-5.7631,-5.7642,-5.7687,-5.7686,-5.7765,-5.7775,-5.7804,-5.7907,-5.7927,-5.7969,-5.7908,-5.8166,-5.8172,-5.8177,-5.8188,-5.8196,-5.8203,0,0,0,0,0,-5.7336,-5.741,-5.7414,-5.7438,-5.7568,-5.7661,-5.7678,-5.771,-5.769,-5.7728,-5.7771,-5.7773,-5.7953,-5.7916,-5.7939,-5.7985,-5.8164,-5.817,-5.8176,-5.8185,-5.8195,-5.8203,0,0,0,0,0,0,-5.7334,-5.7421,-5.7426,-5.7527,-5.7587,-5.7663,-5.7711,-5.772,-5.7786,-5.7782,-5.7819,-5.7837,-5.793,-5.7968,-5.7926,-5.8083,-5.8056,-5.8067,-5.8055,-5.8065,-5.8072,-5.8059,-5.7915,0,0,0,0,0,-5.7345,-5.7413,-5.7486,-5.7568,-5.7598,-5.765,-5.7692,-5.7712,-5.7774,-5.7799,-5.7849,-5.7909,-5.798,-5.8025,-5.8093,-5.8195,-5.8212,-5.8238,-5.8245,-5.8251,-5.8259,-5.8315,-5.8327,-5.8199,-5.8199,-5.8199,0,0,-5.7369,-5.7425,-5.7465,-5.7569,-5.7618,-5.7687,-5.7671,-5.7745,-5.7797,-5.7811,-5.7902,-5.7942,-5.8012,-5.811,-5.8156,-5.8144,-5.8299,-5.8259,-5.8263,-5.8268,-5.8323,-5.8335,-5.8345,-5.8204,-5.8203,-5.8202,0,0,-5.7447,-5.7497,-5.757,-5.762,-5.7694,-5.7728,-5.7746,-5.7822,-5.7849,-5.7942,-5.7954,-5.8017,-5.8137,-5.8186,-5.8227,-5.8327,-5.8331,-5.8348,-5.8385,-5.844,-5.845,-5.8459,-5.8493,-5.8505,-5.8357,-5.8357,-5.8357,0,-5.7466,-5.7571,-5.7607,-5.7681,-5.7726,-5.7744,-5.7819,-5.7865,-5.7957,-5.7988,-5.7974,-5.8126,-5.8174,-5.8284,-5.8309,-5.8342,-5.8363,-5.8338,-5.8446,-5.8455,-5.8464,-5.8497,-5.851,-5.8358,-5.8358,-5.8358,-5.8358,0,-5.7591,-5.7665,-5.7715,-5.7805,-5.7856,-5.793,-5.7977,-5.8025,-5.8042,-5.8078,-5.8173,-5.8233,-5.8313,-5.8341,-5.8358,-5.8455,-5.8445,-5.8438,-5.8411,-5.8477,-5.8508,-5.8521,-5.836,-5.836,-5.8359,-5.8359,0,0,-5.7668,-5.7778,-5.7796,-5.7836,-5.7921,-5.7978,-5.8054,-5.8133,-5.8173,-5.8237,-5.83,-5.8403,-5.8398,-5.8444,-5.8467,-5.8516,-5.8589,-5.8503,-5.8505,-5.8515,-5.8698,-5.87,-5.8714,-5.8594,-5.8597,-5.8599,-5.8691,0,-5.7753,-5.7888,-5.7923,-5.8037,-5.8105,-5.8124,-5.819,-5.8249,-5.8286,-5.8349,-5.8389,-5.846,-5.8449,-5.8477,-5.8526,-5.857,-5.8626,-5.8564,-5.8652,-5.8655,-5.8631,-5.8731,-5.8733,-5.8817,-5.8704,-5.8706,-5.8708,0,-5.787,-5.7937,-5.8058,-5.8134,-5.8164,-5.8223,-5.8299,-5.8359,-5.8427,-5.845,-5.8503,-5.8522,-5.8602,-5.8573,-5.8683,-5.864,-5.8679,-5.8706,-5.871,-5.8717,-5.8683,-5.8738,-5.8845,-5.8857,-5.8728,-5.8726,-5.8725,0,-5.7911,-5.8032,-5.812,-5.8155,-5.8247,-5.8287,-5.8327,-5.8393,-5.8438,-5.8506,-5.8536,-5.8611,-5.8652,-5.871,-5.8749,-5.8725,-5.8855,-5.883,-5.8875,-5.8874,-5.8899,-5.8896,-5.9011,-5.8929,-5.8929,-5.8929,-5.8928,0,-5.8001,-5.8074,-5.814,-5.8193,-5.8276,-5.8317,-5.8397,-5.8438,-5.8497,-5.8558,-5.8581,-5.8638,-5.8688,-5.8752,-5.8784,-5.8869,-5.8888,-5.8909,-5.8915,-5.8905,-5.8902,-5.8928,-5.8922,-5.8932,-5.8931,-5.8931,-5.893,0,-5.8059,-5.8107,-5.8203,-5.8283,-5.8305,-5.8362,-5.843,-5.8483,-5.8522,-5.86,-5.8621,-5.8681,-5.8758,-5.8804,-5.8901,-5.8923,-5.9016,-5.9022,-5.8993,-5.8996,-5.9038,-5.9032,-5.9171,-5.9191,-5.9098,-5.9099,-5.9099,0,-5.8112,-5.8168,-5.8255,-5.8298,-5.8339,-5.8408,-5.8456,-5.8499,-5.8548,-5.863,-5.8673,-5.8752,-5.8817,-5.894,-5.8992,-5.9067,-5.9073,-5.9117,-5.9084,-5.9072,-5.9071,-5.9066,-5.9071,-5.9121,-5.9122,-5.9122,-5.9123,0,-5.82,-5.8221,-5.8288,-5.8364,-5.842,-5.8482,-5.8544,-5.8578,-5.8633,-5.8686,-5.8765,-5.8816,-5.8917,-5.8994,-5.9074,-5.9115,-5.9128,-5.9134,-5.9148,-5.9136,-5.9115,-5.9125,-5.9005,-5.9129,-5.9128,-5.9128,-5.9128,-5.9127,-5.8255,-5.8306,-5.8375,-5.8449,-5.8501,-5.8558,-5.8612,-5.8658,-5.8725,-5.881,-5.8833,-5.8916,-5.8984,-5.9092,-5.9136,-5.9202,-5.9194,-5.9215,-5.922,-5.9224,-5.9224,-5.9108,-5.9217,-5.9217,-5.9217,-5.9217,-5.9216,0,-5.8342,-5.8388,-5.8456,-5.8542,-5.8601,-5.861,-5.8679,-5.8728,-5.8801,-5.8863,-5.8927,-5.9019,-5.9095,-5.9155,-5.9233,-5.9274,-5.9282,-5.9293,-5.9289,-5.9298,-5.9227,-5.9206,-5.9285,-5.9285,-5.9285,-5.9285,-5.9285,-5.9285,-5.8394,-5.848,-5.851,-5.8622,-5.8668,-5.875,-5.8789,-5.8842,-5.8892,-5.8993,-5.9057,-5.9096,-5.9157,-5.924,-5.9311,-5.9326,-5.9353,-5.9363,-5.9379,-5.931,-5.9303,-5.9295,-5.9276,-5.9369,-5.9369,-5.9444,-5.9445,-5.9445]},{"header":{"parameterUnit":"m.s-1","parameterCategory":1,"la1":30.2991,"la2":30.254,"lo1":-89.0895,"lo2":-89.0444,"dy":0.0017,"dx":0.0017,"nx":28,"ny":28,"refTime":"2025-04-03T03:00:00:Z","depth":0,"parameterNumber":3,"parameterNumberName":"V-component_of_WINDS"},"data":[0,0,0,0,0,0,0,0,0,0,0,0,0,0,0,0,0,0,0,0,0,0,0,0,0,0,0,0,0,0,0,0,0,0,0,0,0,0,0,0,0,0,0,0,0,0,0,0,0,0,0,0,0,0,0,0,0,0,3.242,3.2422,0,3.2572,3.2574,3.2575,3.264,3.264,3.264,3.2639,3.2791,3.2796,3.28,0,0,0,0,0,0,0,0,0,0,0,0,0,3.2185,3.2189,3.242,3.2422,3.2424,3.2572,3.2574,3.2576,3.264,3.264,3.2639,3.2639,3.279,3.2795,3.28,0,0,0,0,0,0,0,0,0,0,0,0,0,3.2307,3.219,3.2419,3.2474,3.248,3.2571,3.2574,3.2576,3.264,3.264,3.2639,3.2639,3.2788,3.2795,3.2801,3.2848,0,0,3.2821,3.2823,0,0,0,0,0,0,0,0,3.23,3.2315,3.2464,3.247,3.2477,3.2587,3.2547,3.2667,3.264,3.2579,3.2639,3.2639,3.2723,3.2735,3.2764,3.2856,3.2862,3.2821,3.2825,3.2828,3.283,0,0,0,0,0,0,0,3.2291,3.2309,3.248,3.2466,3.2474,3.249,3.2507,3.257,3.2651,3.2585,3.259,3.2607,3.2727,3.2758,3.2768,3.2864,3.2821,3.2827,3.2831,3.2833,3.3006,3.3006,0,0,0,0,0,0,3.2274,3.2302,3.2475,3.2484,3.2386,3.2495,3.2514,3.2552,3.2651,3.2666,3.2607,3.2609,3.2747,3.2761,3.2774,3.2839,3.2828,3.2834,3.2838,3.3005,3.3006,3.3006,0,0,0,0,0,0,3.2269,3.2289,3.2469,3.2395,3.2419,3.2499,3.2542,3.2555,3.2586,3.2668,3.2683,3.2624,3.2747,3.2765,3.2831,3.2845,3.2837,3.2843,3.3004,3.3005,3.3006,3.2966,0,0,0,0,0,0,3.2262,3.2287,3.2305,3.2395,3.2422,3.2523,3.2543,3.2558,3.2598,3.2602,3.2688,3.2702,3.2749,3.2821,3.2837,3.2853,3.2848,3.3003,3.3004,3.3006,3.2967,3.2966,3.2965,0,0,0,0,0,3.2253,3.2287,3.2306,3.2327,3.2448,3.2524,3.254,3.2594,3.2598,3.2618,3.2671,3.2699,3.284,3.2827,3.2846,3.2864,3.3002,3.3004,3.3006,3.2967,3.2966,3.2965,0,0,0,0,0,0,3.2195,3.2299,3.2322,3.2385,3.2445,3.2534,3.2561,3.2591,3.265,3.2651,3.2715,3.2734,3.2794,3.2836,3.2819,3.2917,3.2924,3.2929,3.2888,3.2888,3.2887,3.2876,3.2853,0,0,0,0,0,3.219,3.2244,3.2331,3.2379,3.2408,3.2479,3.2514,3.2551,3.2616,3.2641,3.2699,3.2759,3.2818,3.2855,3.2913,3.2973,3.2994,3.2995,3.2994,3.2993,3.2997,3.3035,3.3037,3.3012,3.3012,3.3012,0,0,3.218,3.2243,3.2273,3.2369,3.242,3.2474,3.25,3.2555,3.2597,3.2649,3.2715,3.276,3.2832,3.2896,3.2926,3.2932,3.3009,3.2995,3.2994,3.2999,3.3037,3.3039,3.3041,3.3013,3.3013,3.3012,0,0,3.2189,3.2241,3.2288,3.234,3.2417,3.2465,3.2476,3.2562,3.2594,3.2662,3.2703,3.2752,3.2851,3.2902,3.294,3.2972,3.3,3.2989,3.2985,3.3021,3.3023,3.3025,3.3038,3.3042,3.2993,3.2992,3.2992,0,3.2166,3.225,3.2308,3.2363,3.2405,3.2457,3.2506,3.2552,3.2644,3.2671,3.2677,3.2804,3.2856,3.2934,3.2942,3.297,3.2986,3.2979,3.3018,3.302,3.3023,3.3037,3.3041,3.2991,3.2991,3.2991,3.2991,0,3.2218,3.2276,3.2305,3.2395,3.244,3.249,3.2557,3.2596,3.263,3.2677,3.2746,3.2811,3.2885,3.2906,3.2938,3.2989,3.299,3.3005,3.3014,3.3023,3.3037,3.3042,3.2988,3.2989,3.2989,3.299,0,0,3.2194,3.2318,3.2327,3.237,3.2461,3.2507,3.2561,3.2634,3.2667,3.2729,3.2777,3.2861,3.2877,3.2921,3.2959,3.299,3.3014,3.3003,3.3006,3.3004,3.3077,3.3065,3.307,3.3033,3.3034,3.3035,3.3071,0,3.2216,3.2316,3.2372,3.2449,3.2505,3.2556,3.2604,3.2664,3.271,3.2764,3.2814,3.2874,3.2889,3.2917,3.295,3.3004,3.303,3.3002,3.3079,3.3081,3.306,3.3077,3.3064,3.3095,3.3077,3.3078,3.3078,0,3.2255,3.2319,3.2402,3.249,3.2515,3.2557,3.263,3.268,3.2751,3.2783,3.2833,3.2872,3.2932,3.2935,3.3019,3.2999,3.3034,3.3066,3.3068,3.3078,3.3081,3.3088,3.3106,3.3111,3.3087,3.3086,3.3085,0,3.2231,3.2338,3.2402,3.2437,3.254,3.2568,3.2612,3.2683,3.2725,3.2789,3.2817,3.2886,3.2924,3.2977,3.3034,3.3031,3.3113,3.3121,3.3142,3.314,3.3157,3.3155,3.3181,3.3177,3.3177,3.3177,3.3176,0,3.2251,3.23,3.2393,3.2433,3.249,3.2554,3.2609,3.2657,3.272,3.277,3.2818,3.2864,3.2936,3.2991,3.3036,3.31,3.3116,3.3144,3.3156,3.3141,3.3137,3.3165,3.3165,3.3178,3.3178,3.3177,3.3177,0,3.2234,3.2298,3.2372,3.2464,3.2489,3.2527,3.2607,3.2647,3.2697,3.276,3.2778,3.2856,3.2923,3.2986,3.3075,3.3105,3.3171,3.3184,3.3147,3.3154,3.3172,3.317,3.3217,3.3228,3.3215,3.3215,3.3215,0,3.2242,3.2282,3.238,3.2418,3.2462,3.2521,3.2565,3.263,3.2674,3.276,3.279,3.2862,3.2923,3.3028,3.3092,3.3162,3.3179,3.3191,3.3189,3.3174,3.3181,3.3178,3.3184,3.319,3.3189,3.3189,3.3189,0,3.2252,3.2283,3.2344,3.2418,3.247,3.253,3.2592,3.262,3.2698,3.2744,3.2815,3.2863,3.2956,3.3027,3.3104,3.3149,3.3182,3.3189,3.3198,3.3184,3.3161,3.3176,3.3146,3.3188,3.3188,3.3188,3.3188,3.3188,3.2249,3.2288,3.2364,3.2432,3.2486,3.2544,3.2588,3.2644,3.2705,3.2787,3.2822,3.2894,3.2966,3.3074,3.3119,3.3177,3.3184,3.3196,3.3199,3.3201,3.32,3.3151,3.3191,3.3191,3.3191,3.3191,3.3191,0,3.2263,3.2315,3.2377,3.2464,3.2518,3.2546,3.2618,3.2661,3.2724,3.2789,3.2849,3.2932,3.3002,3.3073,3.3147,3.3179,3.3197,3.3197,3.3195,3.3206,3.3188,3.3174,3.3182,3.3182,3.3182,3.3182,3.3182,3.3182,3.2276,3.2344,3.2384,3.248,3.2532,3.2605,3.2644,3.2698,3.2751,3.2841,3.2901,3.2947,3.3015,3.3095,3.316,3.3179,3.3205,3.3201,3.3224,3.3206,3.3207,3.3207,3.3194,3.3206,3.3206,3.3238,3.3238,3.3238]}]]